Weather History for Miles City, MT

Change the Weather History Date:

Tuesday, January 8, 2013

  Actual Average Record
Temperature  
Mean Temperature 31 °F 19 °F  
Max Temperature 40 °F 29 °F 63 °F (2002)
Min Temperature 22 °F 8 °F -26 °F (1976)
Degree Days  
Heating Degree Days 34 46  
Month to date heating degree days 350 369  
Since 1 July heating degree days 3260 3553  
Cooling Degree Days 0 0  
Month to date cooling degree days 0 0  
Year to date cooling degree days 0 0  
Moisture  
Dew Point 27 °F    
Average Humidity 74    
Maximum Humidity 84    
Minimum Humidity 64    
Precipitation  
Precipitation 0.01 in 0.01 in 0.25 in (1949)
Month to date precipitation 0.03 0.10  
Year to date precipitation 0.03 0.10  
Sea Level Pressure  
Sea Level Pressure 29.87 in    
Wind  
Wind Speed 9 mph (West)    
Max Wind Speed 30 mph    
Max Gust Speed 38 mph    
Visibility 10 miles    
Events Rain    
T = Trace of Precipitation, MM = Missing Value Source: NWS Daily Summary

Daily Weather History Graph

Daily Weather History Graph

Search for Another Location

Airport:

Trip Planner

Search our weather history database for the weather conditions in past years. The results will help you decide how hot, cold, wet, or windy it might be!

Date:

Astronomy

Jan. 08, 2013 Rise Set
Actual Time 7:46 AM MST 4:35 PM MST
Civil Twilight 7:11 AM MST 5:09 PM MST
Nautical Twilight 6:33 AM MST 5:47 PM MST
Astronomical Twilight 5:57 AM MST 6:23 PM MST
Moon 4:21 AM MST (1/8) 1:40 PM MST (1/8)
Length of Visible Light 9h 57m
Length of Day
8h 49m
Waning Crescent, 13% of the Moon is Illuminated
Jan 8
Waning Crescent
Jan 11
New
Jan 18
First Quarter
Jan 26
Full
Feb 3
Last Quarter

Hourly Weather History & Observations

Time (MST) Temp. Windchill Dew Point Humidity Pressure Visibility Wind Dir Wind Speed Gust Speed Precip Events Conditions
12:53 AM 34.0 °F 26.6 °F 27.0 °F 75% 29.67 in 10.0 mi SSE 9.2 mph - 0.00 in Rain Light Rain
1:53 AM 33.1 °F 26.9 °F 28.0 °F 82% 29.68 in 10.0 mi SSE 6.9 mph - 0.00 in   Overcast
2:53 AM 33.1 °F 25.5 °F 27.0 °F 78% 29.67 in 10.0 mi South 9.2 mph - N/A   Overcast
3:53 AM 36.0 °F 28.5 °F 27.0 °F 70% 29.67 in 10.0 mi SW 10.4 mph - N/A   Overcast
4:53 AM 37.0 °F 29.3 °F 26.1 °F 65% 29.70 in 10.0 mi West 11.5 mph - N/A   Mostly Cloudy
5:53 AM 39.0 °F 30.6 °F 28.0 °F 65% 29.71 in 10.0 mi West 15.0 mph - N/A   Mostly Cloudy
6:53 AM 37.9 °F 30.5 °F 27.0 °F 65% 29.73 in 10.0 mi West 11.5 mph - N/A   Mostly Cloudy
7:53 AM 37.0 °F - 28.0 °F 70% 29.77 in 10.0 mi Calm Calm - 0.00 in   Overcast
8:53 AM 37.9 °F 29.6 °F 30.0 °F 73% 29.81 in 10.0 mi NW 13.8 mph - 0.00 in   Overcast
9:16 AM 37.4 °F 29.3 °F 30.2 °F 75% 29.77 in 10.0 mi WNW 12.7 mph 21.9 mph 0.00 in Rain Light Rain
9:40 AM 37.4 °F 31.4 °F 30.2 °F 75% 29.78 in 10.0 mi WNW 8.1 mph - 0.00 in   Overcast
9:53 AM 37.0 °F 29.3 °F 30.9 °F 79% 29.85 in 10.0 mi West 11.5 mph - 0.00 in Rain Light Rain
10:44 AM 35.6 °F 29.2 °F 33.8 °F 93% 29.80 in 10.0 mi NW 8.1 mph - 0.01 in Rain Light Rain
10:53 AM 36.0 °F 31.1 °F 33.1 °F 89% 29.86 in 10.0 mi West 5.8 mph - 0.01 in   Overcast
11:53 AM 37.0 °F 28.9 °F 33.1 °F 86% 29.86 in 10.0 mi West 12.7 mph 21.9 mph 0.00 in Rain Light Rain
12:53 PM 37.9 °F 31.5 °F 32.0 °F 79% 29.88 in 10.0 mi WNW 9.2 mph - N/A   Overcast
2:53 PM 37.0 °F 26.2 °F 30.0 °F 76% 29.96 in 10.0 mi NW 21.9 mph - N/A   Mostly Cloudy
3:53 PM 34.0 °F 25.0 °F 28.0 °F 79% 30.01 in 10.0 mi NNW 12.7 mph - N/A   Clear
4:53 PM 32.0 °F 25.6 °F 27.0 °F 82% 30.02 in 10.0 mi NW 6.9 mph - N/A   Mostly Cloudy
5:53 PM 30.0 °F 26.5 °F 25.0 °F 82% 30.03 in 10.0 mi SW 3.5 mph - N/A   Mostly Cloudy
6:53 PM 28.0 °F 20.8 °F 21.0 °F 75% 30.05 in 10.0 mi WSW 6.9 mph - N/A   Clear
7:53 PM 27.0 °F 20.5 °F 19.0 °F 72% 30.09 in 10.0 mi West 5.8 mph - N/A   Clear
8:53 PM 28.0 °F 22.8 °F 19.0 °F 69% 30.08 in 10.0 mi NW 4.6 mph - N/A   Clear
10:53 PM 21.9 °F 13.4 °F 17.1 °F 82% 30.10 in 10.0 mi SSE 6.9 mph - N/A   Clear
11:53 PM 25.0 °F 17.1 °F 19.9 °F 81% 30.11 in 10.0 mi SSE 6.9 mph - N/A   Overcast